Location: ????????
(55.3939°N, 37.4780°E)
Time: 12:27:55
(UTC+00:00)

NOSS 3-1 (A) - Pass Details

Date: 14 April 2026
Orbit: 613 x 1593 km, 63.4° (Epoch: 10 January)

Event Time Altitude Azimuth Distance (km) Brightness Sun altitude
Rises 20:54:43 0° 309° (NW) 3,636 7.2 -24.5°
Reaches altitude 10° 20:57:03 10° 307° (NW) 2,814 6.5 -24.6°
Maximum altitude 21:03:45 66° 227° (SW) 1,308 3.9 -24.7°
Enters shadow 21:06:11 46° 166° (SSE) 1,657 4.2 -24.8°
